Regional Weather Roundup
Issued by NWS Albany, NY

Home | Current Version | Previous Version | Text Only | Print | Product List | Glossary On
Versions: 1 2 3 4 5 6 7 8 9 10 11 12 13 14 15 16 17 18 19 20 21 22 23 24 25 26 27 28 29 30 31 32 33 34 35 36 37 38 39 40 41 42 43 44 45 46 47 48 49 50
550
ASUS41 KALY 220610
RWRALY

NEW YORK STATE HOURLY WEATHER ROUNDUP
NATIONAL WEATHER SERVICE ALBANY NY
200 AM EDT MON MAY 22 2017

NOTE: "FAIR" INDICATES FEW OR NO CLOUDS BELOW 12,000 FEET WITH NO
SIGNIFICANT WEATHER AND/OR NO OBSTRUCTIONS TO VISIBILITY.

NYZ032-033-038>043-046>054-057>066-NYZ062>081-082-084-220700-
EAST


CITY           SKY/WX    TMP DP  RH WIND       PRES   REMARKS
ALBANY         LGT RAIN  53  42  66 VRB7      30.15F
GLENS FALLS    NOT AVBL
POUGHKEEPSIE   CLOUDY    56  37  49 S7        30.19F
NEWBURGH       CLOUDY    57  39  51 S9        30.21F
MONTGOMERY     CLOUDY    56  40  55 S5        30.20F
WHITE PLAINS   LGT RAIN  53  44  71 SE6       30.21F
ISLIP          CLOUDY    56  42  59 SE8       30.21F
NEW YORK CITY  LGT RAIN  59  47  64 S10       30.21F
CENTRAL PARK   CLOUDY    55  48  77 S6        30.24F
$$

NYZ005>009-017-018-044>046-055-056-220700-
CENTRAL


CITY           SKY/WX    TMP DP  RH WIND       PRES   REMARKS
FULTON         LGT RAIN  56  51  84 VRB6      30.01F
SYRACUSE       CLOUDY    57  48  72 S9        30.01F
ROME           CLOUDY    52  49  89 E14       30.09F
ELMIRA         CLOUDY    55  48  77 CALM      30.07F
BINGHAMTON     LGT RAIN  51  43  74 S10G20    30.09F
MONTICELLO     CLOUDY    48  45  87 E7        30.20F
$$

NYZ026>034-041>043-087-220700-
NORTH


CITY           SKY/WX    TMP DP  RH WIND       PRES   REMARKS
WATERTOWN      LGT RAIN  54  52  93 S5        30.00F
FORT DRUM      NOT AVBL
OGDENSBURG     DRIZZLE   54  53  95 CALM      30.01F
MASSENA        LGT RAIN  52  51  97 E8        30.04F
SARANAC LAKE   RAIN      49  48  97 S6        30.05F FOG
PLATTSBURGH    LGT RAIN  53  51  93 SE8       30.09F
$$

NYZ001>004-010>016-019>021-085-220700-
WEST


CITY           SKY/WX    TMP DP  RH WIND       PRES   REMARKS
NIAGARA FALLS  CLOUDY    62  54  74 S15G21    29.92S
BUFFALO        CLOUDY    61  55  81 S13       29.94S
DUNKIRK        RAIN      59  57  93 S22G31    29.93S
JAMESTOWN      CLOUDY    54  52  94 S9        29.99F
WELLSVILLE     CLOUDY    53  49  86 S14G24    30.06F
ROCHESTER      MOCLDY    59  50  72 SW15G23   29.96F
PENN YAN       RAIN      55  46  71 S16G29    30.02S
$$

             KEY
       WCI = WIND CHILL INDEX
       VSB = VISIBILITY
       HX  = HEAT INDEX
$$




USA.gov is the U.S. government's official web portal to all federal, state and local government web resources and services.